Flag for Germany

Past Weather in Singen (Hohentwiel), Baden-Württemberg, Germany — Yesterday and Last 2 Weeks

Now
57 °F

Clear.


Feels Like: 57 °F
Forecast: 71 / 49 °F
Wind: 2 mph from North

Location: Zurich-Kloten

Current Time: Jul 12, 2020 at 12:04:24 am

Latest Report: Jul 11, 2020 at 11:20 pm


Visibility: 10 mi

Pressure: 30.24 "Hg

Humidity: 88%

Dew Point: 54 °F

Location of Singen (Hohentwiel)Location

Past Weather in Singen (Hohentwiel) — Graph

°F

Singen (Hohentwiel) Temperature Yesterday

Maximum temperature yesterday: 68 °F (at 12:20 pm)
Minimum temperature yesterday: 59 °F (at 10:50 pm)
Average temperature yesterday: 63 °F

High & Low Weather Summary for the Past Weeks

 TemperatureHumidityPressure
High86 °F (Jul 1, 3:50 pm)100% (Jun 27, 3:50 am)30.24 "Hg (Jun 27, 3:50 am)
Low46 °F (Jul 7, 3:20 am)29% (Jul 9, 4:50 pm)29.83 "Hg (Jul 1, 3:50 pm)
Average67 °F69%30.05 "Hg
* Reported Jun 26 10:20 pm — Jul 11 10:50 pm, Singen (Hohentwiel). Weather by CustomWeather, © 2020

Note: Actual official high and low records may vary slightly from our data, if they occured in-between our weather recording intervals... More about our weather records

Singen (Hohentwiel) Weather History for the Previous 24 Hours

Scroll right to see more
 ConditionsComfort  
Time TempWeatherWind HumidityBarometerVisibility
10:50 pm
Sat, Jul 11
59 °FClear.6 mph82%30.24 "Hg10 mi
10:20 pm61 °FClear.5 mph77%30.24 "Hg10 mi
9:50 pm63 °FPassing clouds.6 mph68%30.24 "HgN/A
9:20 pm63 °FPassing clouds.7 mph77%30.24 "HgN/A
8:50 pm64 °FPassing clouds.8 mph73%30.21 "HgN/A
8:20 pm66 °FPassing clouds.6 mph64%30.21 "HgN/A
7:50 pm66 °FPassing clouds.5 mph68%30.21 "HgN/A
7:20 pm66 °FPassing clouds.5 mph73%30.21 "HgN/A
6:50 pm66 °FPassing clouds.5 mph68%30.21 "HgN/A
6:20 pm66 °FPassing clouds.6 mph68%30.21 "HgN/A
5:50 pm68 °FPassing clouds.8 mph64%30.21 "HgN/A
5:20 pm68 °FPassing clouds.8 mph64%30.21 "HgN/A
4:50 pm68 °FPassing clouds.10 mph69%30.21 "HgN/A
4:20 pm68 °FPassing clouds.9 mph73%30.21 "HgN/A
3:50 pm66 °FScattered clouds.8 mph73%30.21 "HgN/A
2:50 pm63 °FSprinkles. Partly sunny.8 mph88%30.21 "HgN/A
2:20 pm61 °FRain. Broken clouds.7 mph94%30.21 "Hg6 mi
1:50 pm63 °FThunderstorms. Broken clouds.5 mph83%30.21 "Hg6 mi
1:20 pm64 °FScattered showers. Broken clouds.7 mph68%30.18 "HgN/A
12:50 pm66 °FScattered showers. Broken clouds.3 mph68%30.18 "HgN/A
12:20 pm68 °FScattered clouds.5 mph64%30.18 "HgN/A
11:50 am66 °FScattered showers. Partly sunny.5 mph68%30.18 "HgN/A
11:20 am66 °FScattered showers. Partly sunny.2 mph68%30.18 "HgN/A
10:50 am64 °FScattered showers. Partly sunny.3 mph78%30.18 "HgN/A
10:20 am63 °FBroken clouds.5 mph83%30.18 "HgN/A
9:50 am64 °FSprinkles. Broken clouds.7 mph83%30.15 "HgN/A
9:20 am63 °FBroken clouds.5 mph88%30.15 "HgN/A
8:50 am61 °FBroken clouds.3 mph94%30.15 "HgN/A
8:20 am61 °FScattered showers. Broken clouds.3 mph94%30.15 "HgN/A
7:50 am61 °FScattered showers. Broken clouds.5 mph94%30.15 "HgN/A
7:20 am61 °FSprinkles. Broken clouds.7 mph94%30.12 "Hg4 mi
6:50 am61 °FLight rain. Broken clouds.3 mph94%30.12 "HgN/A
6:20 am61 °FLight rain. Broken clouds.5 mph100%30.12 "HgN/A
5:50 am61 °FLight rain. Broken clouds.1 mph94%30.09 "HgN/A
5:20 am61 °FLight rain. Partly cloudy.2 mph94%30.09 "HgN/A
4:50 am61 °FRain. Partly cloudy.2 mph94%30.09 "Hg5 mi
4:20 am61 °FRain. Partly cloudy.2 mph94%30.09 "Hg5 mi
3:50 am61 °FRain. Partly cloudy.2 mph94%30.09 "Hg6 mi
3:20 am61 °FRain. Passing clouds.5 mph100%30.09 "Hg6 mi
2:50 am61 °FRain. Passing clouds.3 mph100%30.09 "Hg6 mi
1:50 am63 °FRain. Passing clouds.2 mph94%30.12 "Hg6 mi
1:20 am63 °FRain. Passing clouds.3 mph94%30.12 "Hg6 mi
12:50 am63 °FSprinkles. Partly cloudy.5 mph94%30.09 "HgN/A
12:20 am63 °FSprinkles. Passing clouds.2 mph94%30.09 "HgN/A
Weather by CustomWeather, © 2020

See weather overview